Theta_e
305 315 314 310 310 306 302 301 301 301 301 301 301 302 303 301 301 301 300 298 296 298 301 299 298 297 296 296 295 296 294 290 289 289 288 288 287 287 286 286 286 286 286 286 286 286 286 286 286 286 286 286 285 284 283 283 283 283 282 282 281 281 280 279 278 278 277 277 276 276 276 275 275 274 273 273 273 272 272 273 273 273 273 273 273 273
310 316 308 306 307 303 301 301 300 301 301 301 302 302 302 301 303 300 297 297 296 297 300 299 297 296 295 296 295 294 294 293 291 290 290 288 287 287 286 286 287 286 286 286 285 285 285 285 285 285 285 285 285 284 284 283 283 283 282 282 281 281 280 279 278 278 277 277 276 276 276 275 274 274 273 273 273 272 272 273 273 273 273 272 273 273
318 311 302 302 302 299 300 301 301 301 301 301 301 301 305 303 302 301 297 296 296 296 298 297 296 296 295 295 295 293 293 294 292 290 290 290 289 288 288 287 287 287 287 286 286 286 285 285 285 285 285 285 285 284 283 283 283 282 282 282 281 280 280 279 279 278 277 277 276 276 275 275 274 273 273 272 272 272 272 272 272 272 272 272 272 272
313 306 300 298 299 301 302 301 301 299 300 302 300 301 306 303 301 304 300 296 296 295 296 296 295 296 297 298 298 292 290 292 290 289 289 287 289 289 288 288 287 287 288 288 287 286 286 285 284 284 284 284 284 283 283 283 282 282 282 282 281 281 280 279 279 278 277 277 276 275 275 274 273 273 273 272 272 272 272 272 272 272 271 271 272 272
305 301 297 297 299 301 300 300 300 299 302 305 302 302 306 303 299 301 299 295 296 295 294 296 299 303 302 303 304 295 290 294 292 291 293 289 287 288 287 287 287 287 287 288 288 287 286 286 285 285 284 284 283 283 283 283 282 282 282 282 282 281 280 279 279 278 277 276 275 275 274 273 273 272 272 272 272 272 272 271 271 271 271 271 271 271
303 297 295 299 300 299 299 301 300 300 303 307 305 302 302 301 297 298 297 296 299 300 295 295 305 314 306 304 307 299 296 300 295 294 300 297 290 288 288 288 287 287 287 287 287 287 286 286 286 285 284 283 283 284 285 284 283 282 282 282 282 281 280 279 279 278 277 276 275 275 274 273 272 272 272 272 272 272 271 271 271 271 271 271 271 270
300 295 296 300 301 300 300 300 300 300 303 306 304 299 298 298 297 297 296 297 303 303 296 293 303 312 306 306 307 299 299 304 300 299 304 303 297 293 290 290 289 289 288 288 287 286 286 286 285 285 285 284 284 286 286 283 282 282 282 282 281 281 280 280 279 278 277 276 275 275 274 274 273 272 272 273 272 272 271 271 270 270 271 271 271 270
299 297 298 299 300 300 301 302 300 301 305 306 300 297 298 296 296 297 296 298 300 298 296 295 298 304 306 306 302 295 301 307 305 306 307 305 305 300 295 292 291 291 290 289 289 288 286 286 286 286 286 286 285 286 285 283 283 282 282 282 282 281 280 279 279 278 277 276 276 276 275 274 273 272 272 273 272 271 271 271 270 270 270 270 270 270
298 300 301 299 300 301 302 302 300 299 301 302 298 296 296 294 296 297 297 300 297 297 302 299 295 302 308 306 299 296 301 307 307 307 307 306 306 303 300 297 294 292 290 289 289 288 287 287 287 287 287 287 286 286 284 284 283 282 282 282 281 281 280 279 279 278 277 276 276 276 275 274 273 273 272 272 271 271 271 270 270 270 270 270 270 270
299 299 300 300 302 303 302 299 298 299 299 297 295 295 294 294 296 296 298 301 298 301 308 301 295 302 308 309 305 300 301 306 307 306 306 305 304 302 301 299 297 294 291 290 288 287 287 287 287 287 286 287 286 285 284 284 283 282 281 281 281 281 280 279 278 278 277 276 276 275 275 274 274 273 272 272 271 271 270 270 270 270 269 270 270 270
299 296 298 300 300 300 299 297 296 298 298 296 295 296 297 296 295 296 299 299 301 311 310 299 295 299 304 309 308 304 303 305 306 305 306 305 304 303 300 299 297 295 293 292 289 287 287 287 287 287 286 287 286 285 284 283 282 282 281 280 281 281 280 279 278 278 277 277 276 276 275 275 274 273 273 272 271 271 270 270 269 269 269 269 269 270
299 298 300 301 298 296 297 297 295 294 296 297 298 298 301 302 298 300 304 301 305 315 307 296 295 297 301 308 311 310 307 304 303 303 305 305 305 304 301 298 296 294 293 291 290 289 287 287 288 287 286 287 286 284 283 283 282 281 281 280 280 280 279 279 278 278 277 277 276 276 275 275 274 274 273 272 271 271 270 270 269 269 269 269 269 269
306 302 300 298 296 295 297 301 299 296 297 299 301 303 308 313 308 308 312 308 309 311 298 293 297 298 299 303 305 307 306 304 303 302 303 303 302 302 300 297 295 292 290 290 290 290 288 287 287 287 287 287 286 285 284 283 282 281 280 279 279 280 279 278 278 278 277 277 276 276 276 275 275 274 273 272 271 271 270 270 269 269 269 269 269 269
314 305 299 298 298 295 296 302 304 302 300 299 303 306 310 313 311 313 313 305 306 307 296 291 296 300 302 302 302 305 305 305 303 301 301 300 299 299 296 292 290 289 289 290 290 290 289 288 288 288 287 287 286 286 285 283 282 281 280 279 278 279 279 278 278 278 277 277 277 276 276 275 275 274 273 272 271 271 270 269 269 269 269 269 269 269
313 310 303 300 299 295 295 299 300 301 300 297 297 298 306 310 308 311 312 307 305 305 299 294 298 305 308 305 302 303 304 302 299 297 296 295 293 291 290 289 290 290 291 291 291 291 290 288 288 288 287 287 287 287 286 284 283 281 280 279 278 279 279 278 277 277 277 277 277 277 276 275 275 274 273 272 272 271 270 269 269 269 269 269 269 269
307 310 301 295 295 295 296 295 294 298 300 296 293 297 304 306 306 304 301 300 299 301 303 300 301 304 304 301 299 299 300 300 298 296 294 296 293 291 292 293 293 293 293 292 292 292 291 289 289 289 288 288 287 287 286 285 284 282 281 280 279 279 279 278 277 277 277 277 277 276 276 275 275 274 273 272 271 271 270 269 269 269 269 269 269 269
306 309 300 294 295 293 294 294 292 298 301 297 297 302 298 295 302 304 296 293 293 300 306 302 301 301 299 303 306 303 302 303 305 302 299 300 297 295 296 295 294 294 293 293 293 292 291 290 289 289 289 288 288 287 287 286 285 284 282 281 280 279 278 277 277 277 277 277 276 276 276 275 274 274 273 272 272 271 270 269 269 269 269 269 269 268
307 309 300 295 298 294 292 294 294 294 297 299 300 300 295 292 299 302 299 300 300 304 305 302 304 304 300 306 312 308 306 306 307 304 301 301 299 297 296 294 294 294 293 293 293 292 291 290 290 290 289 289 288 288 287 287 286 284 283 282 281 280 279 278 278 277 277 276 276 276 275 275 274 274 273 272 272 271 270 269 269 269 269 269 268 268
304 309 304 295 297 297 292 294 298 294 292 297 298 295 295 299 304 301 301 305 304 304 305 304 305 302 299 305 311 310 308 305 303 301 299 300 298 295 295 294 294 294 293 293 293 292 292 290 290 290 290 290 289 289 288 287 286 285 284 283 281 281 280 279 278 277 276 276 276 276 275 275 274 274 273 272 271 271 270 269 269 268 268 268 268 268
301 306 308 298 294 296 295 297 304 300 293 294 295 294 295 300 304 301 299 301 303 304 304 305 305 304 302 305 309 309 306 304 301 299 298 297 295 294 294 293 294 293 293 293 293 293 292 291 291 290 290 290 290 289 288 287 286 285 284 283 281 281 280 279 277 277 276 276 275 275 274 274 274 274 273 272 271 271 270 269 269 268 268 268 268 268
302 303 308 303 295 297 300 300 303 304 300 298 298 298 297 296 297 297 296 297 302 306 305 304 306 305 302 303 305 305 304 302 299 297 295 295 294 294 294 293 293 293 293 293 293 293 291 290 290 291 291 290 289 289 288 287 286 285 284 283 282 281 279 278 277 277 276 276 275 275 274 274 274 273 272 271 271 270 270 269 268 268 268 268 268 267
302 302 308 307 302 304 304 297 295 298 299 300 302 303 302 300 299 301 300 296 296 300 302 302 303 302 301 304 305 302 301 299 297 295 295 294 294 294 294 294 294 293 293 293 293 293 291 290 291 291 291 290 289 289 288 287 285 284 284 283 282 280 279 279 278 277 276 275 275 274 274 274 274 273 272 271 271 270 269 269 268 268 268 267 267 267
300 302 305 306 304 303 298 292 291 293 293 295 298 298 300 302 303 306 306 300 296 296 295 296 298 299 300 304 304 301 299 297 296 295 295 295 295 295 294 294 294 293 293 293 293 292 290 290 291 291 291 290 290 289 289 287 286 285 284 283 282 281 280 279 278 277 276 275 274 274 274 273 273 272 272 271 270 270 269 268 268 268 268 267 267 267
300 302 303 306 306 301 295 291 291 291 291 294 296 294 296 300 301 302 301 299 299 299 296 297 299 300 300 300 300 299 297 296 296 296 296 295 294 294 294 294 294 293 293 293 292 291 290 291 291 291 290 290 290 290 289 288 287 286 285 284 282 281 281 280 278 277 276 274 274 274 273 273 272 272 271 271 270 269 269 268 268 268 267 267 267 266
301 305 304 305 308 307 305 303 299 295 294 296 297 294 294 296 297 296 294 293 298 300 299 301 302 302 302 300 298 298 297 296 296 296 295 295 294 294 293 293 294 293 293 293 292 291 291 291 291 290 290 290 289 289 289 288 287 286 285 284 283 282 281 280 278 277 275 274 273 273 272 272 272 271 271 271 270 269 269 268 268 267 267 267 266 266
300 305 303 303 307 307 309 310 308 304 300 297 297 294 292 294 295 298 298 296 298 298 297 301 302 300 300 299 297 297 296 296 296 295 294 294 293 293 293 293 294 293 293 292 291 291 291 291 290 290 290 289 289 289 288 288 287 286 286 285 284 282 281 280 278 276 275 274 273 272 272 272 271 271 271 270 270 269 269 268 268 267 267 266 266 266
300 300 300 303 307 305 305 305 302 301 301 299 299 297 295 293 293 296 300 299 300 299 296 298 299 298 297 297 296 297 296 296 295 294 294 294 293 293 293 294 293 293 293 292 291 291 291 290 290 289 289 289 288 288 288 287 287 286 285 285 284 283 281 280 278 276 275 274 273 272 272 271 271 271 271 270 270 269 269 268 267 267 266 266 266 266
300 300 299 301 302 301 301 301 297 297 298 298 298 298 298 295 292 294 298 298 299 300 298 298 298 298 297 296 296 296 295 294 294 293 293 293 293 294 294 293 293 293 292 291 291 291 291 290 290 289 289 289 288 288 287 287 286 285 285 284 283 282 281 280 278 276 275 273 272 272 271 271 271 271 271 270 270 269 268 268 267 267 266 266 266 265
302 302 298 298 300 299 298 298 297 295 296 296 296 297 297 295 293 294 296 296 295 297 298 298 298 297 296 296 295 295 294 293 293 293 293 293 293 294 293 293 293 292 292 291 291 291 290 290 289 289 289 289 288 288 287 286 286 285 284 284 283 282 281 279 277 276 275 273 272 272 271 271 270 270 270 270 269 269 268 267 267 266 266 265 265 265
300 303 299 295 298 299 297 297 295 295 296 297 296 296 295 295 294 294 294 294 293 294 295 295 294 294 293 294 293 293 293 293 292 293 293 294 294 293 293 293 293 292 291 291 291 291 290 290 289 289 289 289 288 288 287 286 285 285 284 283 283 282 281 279 277 276 274 273 272 272 271 271 270 270 270 269 269 268 267 267 266 266 266 265 265 265
295 302 299 296 299 300 298 296 296 296 297 297 298 297 295 295 295 293 293 292 292 294 294 292 292 293 293 293 293 293 293 293 293 294 294 293 293 293 293 293 292 291 291 291 291 291 290 290 290 289 289 288 288 287 286 286 285 284 284 283 282 282 280 278 276 275 274 273 272 272 271 270 270 269 269 269 268 268 267 267 266 266 265 265 265 265
295 299 298 297 302 303 300 298 297 296 295 296 300 301 299 299 299 298 297 295 295 297 296 294 295 295 295 294 294 293 294 294 294 294 293 293 293 292 293 293 292 291 291 292 291 291 290 290 289 289 289 288 288 287 286 285 284 284 284 283 282 281 280 278 276 275 274 273 272 271 270 270 269 269 269 269 268 268 267 266 266 265 265 265 265 264
294 299 299 298 301 306 302 297 296 297 298 299 300 299 299 300 300 299 298 297 295 295 296 296 297 296 294 294 294 294 295 294 294 293 293 293 292 292 293 292 291 292 292 291 291 291 290 290 289 289 288 288 287 286 286 285 284 284 283 283 282 281 279 278 276 274 274 273 272 271 270 270 269 269 269 268 268 267 267 266 266 265 265 264 264 264
292 297 298 295 299 308 304 297 298 302 304 303 299 297 297 297 297 297 297 297 296 294 295 296 295 294 293 294 294 295 294 294 293 293 292 292 292 292 292 292 292 292 292 291 291 290 290 289 289 289 288 287 287 286 285 285 284 284 283 283 281 280 279 277 276 274 273 273 272 271 270 270 269 269 269 268 268 267 266 266 265 265 265 264 264 264
294 296 296 294 297 303 301 300 305 307 304 301 299 299 298 296 296 296 295 295 296 295 294 295 294 294 295 294 294 293 293 293 293 292 292 293 292 292 292 292 292 292 291 291 290 290 290 289 289 288 288 287 286 286 285 285 284 284 283 283 281 280 278 277 276 274 273 273 272 271 270 269 269 269 268 268 267 267 266 265 265 264 264 264 263 263
298 297 297 295 296 298 299 301 305 304 300 297 297 299 298 296 295 295 295 296 296 294 294 294 294 295 294 293 293 293 293 293 292 293 294 293 293 292 292 292 292 291 291 291 290 290 290 289 289 288 287 287 286 285 285 284 284 284 283 283 281 280 278 277 275 274 273 272 272 271 270 269 268 268 268 268 267 266 266 265 265 264 264 263 263 263
296 298 297 296 296 296 298 300 302 301 298 297 297 297 295 294 294 294 294 294 294 294 294 294 294 294 293 293 294 293 293 293 293 294 294 293 293 292 292 292 291 291 291 290 290 290 290 289 289 288 287 287 286 285 285 284 284 284 283 283 281 279 278 276 275 274 273 272 272 271 270 269 268 268 268 267 266 266 265 265 264 264 263 263 262 262
293 295 296 296 296 296 297 300 302 304 304 300 297 295 294 294 293 290 291 293 294 294 294 294 294 294 293 293 293 293 293 294 294 294 293 292 292 292 291 291 291 291 291 290 290 290 290 289 289 288 287 286 285 285 284 284 284 284 283 282 281 279 277 276 275 275 274 273 272 271 270 269 268 268 267 267 266 266 265 264 264 263 263 263 262 262
294 295 296 298 299 297 298 301 303 305 305 299 295 294 294 292 289 288 292 296 296 294 294 294 293 293 293 293 293 293 293 293 293 293 292 292 292 291 291 291 291 291 291 290 290 290 289 289 288 287 286 285 285 284 284 283 283 283 283 282 280 278 277 276 276 276 275 274 273 271 270 269 268 268 267 267 266 266 265 264 264 263 263 262 262 261
296 296 296 298 299 296 296 300 301 301 301 297 294 295 293 289 288 291 297 299 297 294 294 293 293 293 293 293 293 293 293 293 293 292 291 291 291 291 291 290 290 290 290 290 290 289 289 288 287 286 285 285 285 284 283 283 283 283 283 282 279 277 277 277 277 277 276 275 273 271 270 269 268 267 267 267 266 266 265 264 263 263 262 262 261 261
295 296 293 294 298 297 296 299 299 299 299 295 294 295 293 290 291 295 298 296 294 293 293 293 293 293 293 292 292 292 292 292 292 291 291 291 290 290 290 290 290 289 289 289 289 289 288 287 286 286 285 284 284 283 283 283 283 283 283 281 278 278 278 278 277 277 276 274 273 271 270 269 268 267 267 267 266 265 265 264 263 262 262 261 261 260
294 295 292 292 296 295 294 297 298 299 297 294 293 295 295 294 295 297 296 294 293 293 293 293 293 292 292 292 292 291 291 291 291 291 290 290 290 289 289 289 289 289 289 289 289 288 287 286 285 285 284 283 283 282 283 283 282 283 282 280 278 278 278 278 277 276 276 274 272 271 270 269 268 267 267 266 266 265 264 263 263 262 261 261 260 260
294 296 296 296 294 292 294 297 299 299 297 293 294 295 294 295 296 294 293 293 293 293 292 292 292 292 292 292 291 291 291 291 290 290 290 289 289 289 288 288 288 288 288 288 287 286 286 285 284 284 283 282 282 282 282 282 282 282 281 279 279 279 278 277 277 276 275 273 272 270 269 269 268 267 266 266 265 265 264 263 262 261 261 260 260 259
293 295 298 297 294 295 299 300 299 298 296 294 294 294 294 294 294 292 292 293 292 292 292 292 292 291 291 291 290 291 291 290 290 289 289 288 288 288 288 288 287 287 287 286 285 284 284 283 283 282 282 281 281 281 281 281 282 281 280 279 279 278 277 277 276 275 274 273 271 270 269 268 267 266 266 265 265 264 263 262 261 261 260 260 259 258
294 294 295 295 295 296 297 297 296 295 295 294 293 293 293 293 293 292 292 292 292 292 292 291 291 291 290 290 290 290 290 289 289 288 288 287 287 287 286 286 285 285 284 283 282 282 281 281 281 281 281 280 279 279 279 279 280 281 279 278 278 277 276 275 275 274 273 272 271 269 268 267 266 266 265 265 264 264 263 261 261 260 259 259 258 258
294 293 292 294 296 295 293 294 294 294 294 293 293 293 293 292 292 292 292 291 292 292 291 291 291 290 290 290 290 289 289 289 288 287 287 287 286 285 284 284 283 282 281 281 280 280 280 280 280 279 279 278 277 277 276 277 279 278 277 277 277 276 275 274 273 273 272 271 270 269 267 266 265 265 264 264 264 263 263 262 260 259 259 258 258 258
295 293 292 294 294 294 294 295 294 293 293 292 292 293 292 292 292 291 291 291 291 291 291 291 290 290 290 289 289 289 288 287 286 286 286 285 284 282 282 281 280 280 280 280 279 278 278 278 278 278 277 276 275 275 276 277 277 276 275 276 275 274 273 272 272 272 271 270 269 268 267 266 265 264 263 263 263 262 262 261 260 259 259 258 258 258
294 294 293 293 293 293 294 294 293 292 293 292 292 292 291 291 291 291 291 291 291 290 291 290 290 290 289 288 288 288 286 285 285 285 284 282 281 280 280 280 279 279 279 278 276 276 276 277 277 276 275 274 274 275 276 276 274 274 275 275 273 272 271 271 270 271 271 270 269 267 266 265 264 263 262 262 262 262 261 260 260 259 259 259 259 259
293 293 293 292 293 293 293 292 292 292 292 292 292 291 290 290 290 290 290 290 290 290 290 289 289 289 288 287 288 286 284 284 284 283 280 279 279 279 279 279 278 278 277 275 274 275 275 275 274 274 273 274 274 275 275 274 273 274 274 272 271 270 270 269 269 269 270 269 268 266 266 265 264 263 262 261 261 261 261 261 260 260 260 260 261 261
292 292 292 292 292 293 292 292 292 291 291 291 291 290 290 290 290 290 290 290 289 290 289 288 288 287 287 287 285 283 283 283 282 280 279 278 279 279 278 277 276 275 274 273 274 274 273 272 272 272 272 273 274 274 273 272 273 273 271 270 269 268 268 268 268 268 269 269 267 266 265 264 263 262 261 261 260 260 260 260 260 261 261 261 262 262
292 291 291 292 292 292 291 291 291 291 291 290 290 290 290 290 289 289 289 289 289 289 288 287 286 286 286 284 283 282 282 280 279 278 278 278 278 278 276 275 274 273 273 273 273 272 271 270 271 271 271 272 273 272 270 270 270 269 268 267 267 267 267 267 267 267 268 268 267 266 265 263 262 261 261 261 260 260 259 259 260 261 262 262 262 262
Wind_Speed
3 5 3 2 3 2 2 4 4 3 4 3 2 2 4 4 5 5 2 3 0 1 6 7 10 16 17 17 12 5 5 6 7 7 8 7 6 7 7 8 10 9 15 23 25 25 28 30 31 32 33 33 34 36 35 34 34 33 30 30 30 28 25 24 24 23 22 20 19 18 18 18 17 15 15 14 12 11 12 13 13 15 15 16 15 14
5 5 2 5 6 3 3 4 4 4 3 3 2 2 3 3 6 4 1 3 2 1 5 3 9 17 15 15 11 1 3 6 7 7 8 8 7 7 8 11 12 10 14 18 22 26 27 28 30 30 31 33 36 38 37 37 37 35 33 33 32 28 26 26 26 24 23 22 19 19 18 17 17 16 15 15 13 12 14 15 15 16 17 17 17 16
5 2 3 3 5 5 5 3 5 4 2 2 1 1 3 3 4 4 2 2 2 1 4 4 8 16 15 13 9 2 4 5 5 6 7 7 8 9 9 11 11 11 12 13 17 23 24 26 28 28 31 35 37 38 38 38 38 36 36 35 33 30 29 28 27 25 25 23 20 19 18 17 17 17 16 16 15 14 14 16 17 17 18 19 19 18
2 2 3 2 5 6 5 4 5 3 1 1 1 1 4 3 2 3 3 3 3 2 4 5 7 11 10 8 6 3 3 4 4 6 7 6 9 11 10 8 10 12 13 13 14 18 21 22 24 28 32 34 35 37 39 39 39 39 39 38 35 32 31 29 28 27 25 22 20 19 18 17 17 18 18 18 18 17 15 16 16 18 19 20 20 19
0 2 2 4 4 5 3 1 3 2 3 3 4 3 3 3 1 3 4 6 5 1 1 5 5 5 5 5 5 3 2 4 3 4 7 7 9 10 9 10 12 12 13 13 13 16 17 19 23 28 30 31 33 37 41 42 42 42 41 39 36 34 32 30 29 28 25 22 21 19 17 17 18 19 19 18 20 19 17 16 17 17 18 18 18 17
1 2 2 4 4 4 4 2 3 4 3 4 3 5 5 2 0 3 6 6 5 2 1 3 4 4 4 4 6 3 5 6 3 3 8 8 7 7 8 11 12 11 12 12 14 17 17 20 24 26 27 30 34 39 43 43 42 42 42 39 37 35 33 31 30 28 25 23 22 20 18 18 18 18 19 20 20 20 18 18 18 18 16 16 15 15
1 1 1 4 4 4 3 3 4 5 2 4 3 4 5 4 2 4 4 3 2 3 2 3 1 3 5 5 6 3 6 9 6 5 8 8 7 6 8 10 10 10 10 10 13 15 18 22 22 24 29 32 36 40 40 39 40 41 41 40 38 37 34 33 31 29 27 26 24 22 21 21 20 20 22 22 21 21 20 20 21 20 17 15 14 14
2 3 2 3 4 3 1 3 4 6 3 3 2 4 3 1 3 3 0 1 2 3 3 3 2 2 5 6 5 3 5 8 7 6 7 7 7 7 8 9 9 10 10 8 10 12 16 21 22 26 31 33 35 38 36 36 39 40 41 40 39 38 36 34 32 30 29 28 26 24 23 23 23 24 25 25 23 21 21 21 22 20 18 17 14 15
2 4 5 4 3 2 3 4 5 6 1 3 4 2 1 1 2 2 3 2 1 3 3 3 2 0 5 6 3 3 3 6 6 7 8 8 8 7 8 9 9 10 9 8 9 12 16 22 25 28 31 32 34 35 35 37 38 39 40 40 39 39 38 36 34 32 31 29 27 25 24 25 25 25 25 24 22 21 20 21 21 20 21 21 17 16
1 3 5 6 4 4 4 2 5 6 1 2 5 3 3 3 2 3 3 2 2 3 3 4 2 1 4 6 3 1 1 4 6 6 7 8 8 8 8 9 9 8 8 7 9 14 20 25 28 28 29 33 35 33 34 36 36 37 38 39 40 41 40 37 35 34 33 31 29 28 27 27 27 26 25 24 23 22 22 22 23 23 23 22 19 17
1 1 2 3 2 4 3 1 2 4 2 1 3 3 3 4 3 3 2 3 3 3 4 4 2 1 2 6 4 3 2 4 4 5 7 8 9 8 8 8 8 7 7 7 8 13 21 26 29 28 28 34 35 31 32 34 35 37 37 38 41 42 40 38 37 36 35 33 32 31 30 29 28 27 25 25 25 24 23 22 23 23 22 20 19 18
3 1 1 1 0 3 4 2 1 0 2 3 2 2 3 3 3 3 3 3 3 3 4 3 3 0 2 5 5 5 5 5 5 6 8 9 10 10 8 8 7 6 6 7 8 11 16 21 26 25 26 32 32 30 32 34 34 35 37 38 40 42 41 40 39 37 37 35 34 33 32 30 29 27 26 26 26 26 24 22 21 19 18 18 18 18
2 2 1 2 0 2 3 1 3 3 3 3 3 3 3 4 3 2 3 1 1 4 2 2 3 2 5 8 8 9 10 8 8 8 9 10 10 10 9 8 7 7 7 8 8 10 11 13 19 22 25 28 29 30 32 33 33 34 36 37 39 43 43 41 40 39 38 38 37 35 33 32 30 28 28 28 28 28 25 23 20 18 17 17 18 18
3 3 2 1 0 1 3 2 1 2 2 3 2 3 2 2 3 3 3 2 3 4 2 2 3 3 5 6 8 11 12 9 8 9 9 9 10 10 9 8 9 9 9 8 8 9 9 12 19 22 24 26 27 30 31 31 32 33 35 37 40 44 44 41 41 41 40 40 38 36 34 32 31 30 29 29 29 29 27 25 22 21 19 18 18 19
1 4 1 1 1 1 2 2 2 2 2 1 2 3 2 3 1 3 3 2 4 4 3 3 1 3 3 3 6 9 9 8 7 7 7 7 7 7 8 8 9 9 9 8 8 9 10 16 21 22 24 26 28 30 29 30 31 31 35 37 40 44 44 41 42 42 42 41 39 37 35 33 32 31 29 30 29 29 28 26 23 22 21 20 19 19
2 4 2 1 2 2 2 1 2 4 2 1 2 3 1 3 3 1 3 4 1 2 3 2 3 5 4 7 8 5 5 8 7 5 4 6 6 4 6 8 7 8 8 8 8 9 13 19 23 23 24 26 28 29 29 30 30 30 35 37 40 44 44 42 43 44 43 42 40 37 36 34 33 31 30 30 30 29 28 26 24 23 22 21 20 20
0 4 2 2 2 3 1 2 1 2 0 0 1 1 3 3 5 3 1 0 3 0 3 2 4 5 4 8 8 5 5 6 6 5 4 6 6 5 6 7 7 8 9 9 9 10 13 19 22 23 25 26 28 29 30 31 31 31 34 36 38 41 42 42 43 44 44 42 39 38 36 35 34 33 32 32 31 29 28 26 24 22 21 20 19 21
2 3 3 2 1 1 1 1 2 2 2 3 1 3 2 1 4 3 0 3 3 1 3 2 6 6 2 4 7 7 6 7 7 7 7 7 7 8 8 9 9 10 10 10 10 11 13 17 21 23 25 26 28 30 31 33 32 31 32 35 37 39 42 44 44 43 43 42 40 39 37 36 35 34 34 32 30 29 28 27 25 22 22 21 22 23
2 2 5 1 1 2 2 2 2 3 2 2 2 2 2 1 1 1 0 1 2 3 4 4 7 5 3 4 5 5 6 9 10 8 8 9 8 9 10 10 11 11 10 10 11 11 12 16 20 23 26 28 30 31 32 34 33 31 32 34 36 39 42 43 41 40 41 41 40 39 38 37 36 35 34 32 30 29 29 29 29 27 27 27 26 26
2 1 4 2 1 2 2 1 2 2 3 3 1 1 2 2 3 1 1 2 1 3 4 4 6 4 5 5 4 6 8 9 9 8 7 8 8 8 9 10 11 11 10 11 12 11 12 16 21 23 26 30 32 33 34 34 33 32 32 33 35 38 40 39 38 39 40 40 39 38 37 36 36 34 33 31 30 29 30 30 30 30 30 30 29 28
2 2 3 4 2 1 1 2 5 4 2 2 1 0 1 1 1 0 1 2 3 2 3 3 5 6 4 4 5 8 9 7 7 7 7 8 8 9 8 8 10 11 12 12 11 11 12 15 21 25 28 31 32 33 33 32 32 31 31 32 34 36 36 36 37 38 40 41 39 38 37 36 35 33 32 31 30 29 30 30 29 29 29 29 29 27
1 2 2 3 3 3 3 2 3 5 5 4 4 4 3 3 3 0 3 1 2 2 4 2 7 9 4 5 6 6 6 5 6 7 9 10 9 9 8 9 11 12 12 12 12 11 11 14 21 27 30 31 30 31 32 31 31 30 31 32 33 33 34 36 37 38 40 40 38 38 38 36 34 33 32 30 29 29 29 30 30 29 28 27 27 26
2 3 1 4 5 3 2 1 1 2 3 4 2 2 3 3 5 3 4 3 1 1 2 3 4 7 2 4 5 4 4 5 6 8 10 12 10 9 10 12 14 13 12 12 11 9 10 17 24 28 29 30 29 30 31 31 31 31 32 33 33 33 35 37 37 37 37 38 38 39 38 36 35 33 31 30 29 29 30 30 30 29 28 27 26 26
1 2 1 4 5 2 2 3 3 3 3 2 1 1 3 2 3 4 4 3 2 3 2 1 4 7 3 3 4 4 4 6 8 9 11 13 12 12 13 14 14 13 13 13 10 8 12 19 23 24 25 27 29 30 31 32 33 34 34 34 33 34 36 37 36 35 35 37 38 38 37 36 35 33 31 30 30 30 30 30 29 28 28 28 27 26
1 1 1 3 6 6 5 5 5 4 1 2 2 1 2 3 5 3 2 3 1 5 6 3 7 7 3 3 7 9 10 10 11 10 11 12 12 12 14 14 14 13 14 13 11 9 12 17 18 20 23 26 28 30 31 32 34 35 35 35 34 35 37 36 34 34 35 36 37 37 38 37 35 34 32 31 30 30 29 29 28 27 28 28 27 26
2 2 2 1 3 4 5 5 4 3 1 1 1 2 2 3 6 3 1 2 2 5 6 5 9 10 8 10 14 14 12 12 13 12 11 11 11 12 13 13 13 13 14 13 11 11 13 15 16 19 24 26 28 29 30 32 34 35 36 37 37 36 37 36 33 33 34 36 36 38 39 38 37 35 33 32 31 30 29 28 27 27 27 27 26 26
2 1 3 5 6 7 7 6 2 2 2 5 4 4 4 4 5 4 2 2 4 2 3 6 10 15 17 16 14 13 13 13 14 13 13 13 12 12 13 13 13 12 11 10 9 11 15 16 16 20 24 27 29 30 31 32 33 35 37 39 39 38 37 36 33 32 34 36 37 38 39 39 38 36 33 32 31 30 29 28 27 27 27 26 26 25
3 3 4 6 9 10 8 7 2 1 5 8 7 5 4 4 5 6 5 7 3 1 6 7 7 11 17 18 16 15 15 14 13 14 14 14 14 14 15 15 16 13 10 9 10 13 16 16 15 19 24 28 30 32 33 33 33 35 36 37 39 38 38 36 33 31 33 35 38 39 40 39 37 35 33 31 29 28 28 28 27 27 26 25 24 24
4 3 3 3 7 9 7 10 8 4 6 5 5 7 6 5 8 9 11 10 4 3 11 12 10 13 16 18 19 17 14 13 14 14 14 15 15 16 18 18 18 15 12 11 13 16 17 16 15 18 24 28 30 32 34 34 35 36 36 38 38 38 38 36 32 32 33 35 38 40 40 37 35 33 31 30 28 28 28 27 27 26 25 24 24 23
4 3 2 1 7 9 6 8 7 4 3 3 4 8 7 6 9 10 11 10 6 9 15 17 19 19 16 16 17 15 12 11 11 13 15 16 17 17 18 19 17 15 12 13 16 18 17 16 16 19 24 27 29 32 33 33 36 37 37 38 39 40 40 36 32 32 32 35 39 40 38 34 32 31 30 29 28 28 27 26 25 25 24 24 24 23
1 3 0 3 5 8 4 4 3 4 4 4 7 6 3 3 5 5 7 7 5 9 13 13 15 15 11 10 12 11 9 8 10 14 16 17 18 19 19 18 16 13 13 16 19 19 17 17 17 19 23 26 29 31 31 33 36 38 37 37 38 40 41 36 32 33 33 35 37 37 35 33 32 31 30 29 28 27 26 25 24 24 24 23 23 22
1 2 2 4 3 6 3 5 7 3 3 1 7 5 1 2 3 3 5 5 6 9 11 9 8 10 8 7 10 12 12 13 14 15 15 16 18 19 18 16 12 13 16 19 20 19 18 18 17 18 22 26 28 29 31 34 36 36 36 36 37 39 41 37 33 32 34 35 34 33 33 33 33 31 30 29 27 26 26 24 23 23 24 23 22 22
3 2 1 3 1 6 4 6 9 5 4 2 3 2 2 1 4 5 5 6 8 7 7 7 8 10 10 11 15 19 20 19 17 14 14 16 17 18 16 13 13 16 19 20 19 18 17 17 18 20 24 27 27 29 33 36 35 35 36 36 37 38 39 38 33 31 32 33 32 33 33 33 33 32 31 29 27 26 25 24 24 24 24 23 22 21
2 4 2 1 1 5 8 9 8 5 3 2 4 3 1 5 7 7 7 11 11 6 4 7 9 11 13 14 17 20 21 20 18 15 15 15 14 13 13 14 16 20 20 19 18 16 16 18 21 24 26 27 28 31 35 36 36 37 37 36 36 36 36 36 33 31 31 31 32 33 33 32 32 32 30 28 27 25 24 25 25 25 24 23 22 22
3 4 2 1 2 3 6 7 6 3 4 6 5 3 4 5 8 8 9 12 14 9 5 7 9 12 15 15 15 16 18 19 18 16 15 14 11 9 13 16 19 20 19 18 17 16 18 21 23 25 26 27 29 33 36 38 39 39 39 37 36 35 34 33 32 31 30 31 31 32 32 31 30 31 30 28 26 26 25 25 25 24 23 23 22 22
5 4 2 1 1 2 3 5 3 5 5 3 4 4 4 3 5 6 7 10 11 8 5 7 12 14 16 16 14 15 17 19 16 12 10 9 8 11 15 17 18 18 17 17 18 19 22 25 25 25 25 26 28 32 36 39 40 40 39 38 36 34 32 30 30 30 30 30 29 30 31 31 29 29 29 28 26 26 26 26 25 24 23 22 22 21
5 4 1 1 0 1 1 1 4 5 3 2 3 4 3 4 5 5 7 9 8 4 3 10 16 17 17 17 17 17 17 17 14 8 5 7 12 16 17 18 19 19 20 23 26 28 31 31 29 29 29 27 27 31 35 38 40 39 38 37 35 33 30 27 27 29 29 29 29 29 30 30 29 29 28 28 27 27 28 27 25 24 23 22 21 19
3 1 2 1 1 2 2 3 4 5 2 3 3 5 4 5 5 3 3 6 5 2 7 14 18 19 20 20 20 19 16 14 13 10 9 14 18 18 18 21 24 26 27 30 32 34 35 35 33 33 32 27 27 34 39 41 42 39 36 35 33 29 26 25 27 28 28 28 29 29 29 29 29 29 28 29 29 29 28 27 25 24 23 22 21 19
5 3 3 3 2 2 3 0 1 2 4 4 4 8 6 4 4 2 1 4 4 8 15 17 17 19 20 19 19 17 12 10 11 12 15 20 21 20 19 21 26 32 34 34 35 35 35 36 36 35 30 26 31 40 44 45 43 38 35 34 30 24 22 24 26 28 30 29 28 28 28 28 29 29 29 30 30 29 27 26 24 23 21 21 20 19
6 5 3 2 1 1 3 1 3 4 4 4 6 9 6 3 5 2 6 7 9 15 17 16 17 18 17 16 16 13 10 9 11 15 19 22 23 24 24 24 26 31 33 35 37 36 35 36 35 30 26 28 35 44 47 45 42 38 37 33 24 19 22 26 28 30 32 30 27 26 27 29 30 30 29 29 29 28 26 24 23 21 20 19 18 18
3 3 2 2 2 2 3 2 3 4 4 4 7 10 7 0 3 4 8 9 13 19 18 16 18 17 15 16 13 10 11 13 15 17 20 22 23 25 29 31 33 34 35 37 38 36 34 33 31 28 29 34 42 46 44 41 39 39 38 29 19 20 25 27 29 31 32 30 27 25 27 29 31 31 30 29 27 26 25 23 22 21 20 18 17 16
2 1 1 1 1 1 2 2 3 5 4 3 9 8 6 5 4 6 9 11 14 17 17 17 17 15 15 16 14 12 15 17 18 19 20 21 22 23 27 31 33 34 36 37 37 36 34 31 30 31 35 41 45 44 40 38 40 40 33 22 18 23 27 27 29 32 32 29 26 25 27 29 31 30 28 27 26 24 23 22 21 21 19 18 16 15
1 1 1 2 2 0 1 1 2 3 2 7 12 8 5 6 6 8 11 13 13 14 16 15 14 14 15 16 16 17 19 19 19 20 20 21 21 22 25 29 29 31 34 35 36 38 37 33 32 35 38 42 43 41 39 40 39 34 25 19 21 25 27 28 30 32 30 28 26 25 26 28 30 29 28 27 26 24 22 21 21 20 19 17 16 15
1 2 1 3 2 2 2 1 1 5 6 8 10 7 6 6 7 9 12 13 13 13 13 12 14 15 15 16 18 19 19 19 19 20 20 21 21 21 24 28 30 31 33 34 37 40 39 35 34 36 39 41 42 41 41 40 35 29 23 21 23 27 28 29 31 31 29 27 25 25 25 26 28 29 28 27 25 24 22 21 21 20 18 17 16 15
1 2 1 3 2 0 4 6 6 7 6 6 7 8 9 9 9 10 12 12 11 11 10 12 15 17 17 18 19 18 17 18 18 19 20 20 19 20 24 28 32 33 33 35 40 41 40 38 37 37 38 41 43 42 42 42 37 29 25 25 28 29 28 30 32 31 29 27 25 24 23 24 25 27 27 26 25 24 24 22 21 20 18 17 16 16
1 1 1 2 2 5 6 7 7 6 6 9 9 8 8 10 12 11 12 12 11 11 12 12 14 16 16 17 17 16 15 17 18 18 18 17 18 21 25 28 32 34 35 37 40 43 43 41 38 37 37 41 45 45 45 42 34 28 30 33 31 28 28 31 32 31 29 27 25 22 21 22 23 25 25 25 24 24 24 24 23 20 18 17 17 16
3 2 0 1 5 6 4 3 6 9 12 14 11 7 8 11 11 11 12 12 13 14 14 14 15 16 15 15 16 16 15 16 18 18 16 15 16 19 23 26 29 32 35 36 39 43 43 37 35 35 37 41 46 46 41 35 31 33 37 35 29 27 30 32 32 31 30 27 23 20 19 22 23 24 24 24 23 23 23 23 22 21 19 19 18 17
4 2 3 4 5 5 6 8 10 11 12 10 8 8 11 12 12 12 12 12 15 17 17 17 17 14 13 14 15 15 15 17 17 16 16 15 15 16 21 25 28 31 35 39 43 44 40 34 35 37 38 41 45 42 35 33 37 40 38 30 27 30 33 33 33 33 31 27 21 19 19 22 23 23 23 24 25 24 24 24 23 22 21 20 20 19
4 3 5 6 6 5 7 9 13 13 8 5 7 11 12 12 14 15 13 14 16 16 16 18 17 16 15 15 13 15 18 18 16 17 18 15 14 17 22 27 31 32 36 42 44 40 35 36 39 40 40 42 42 37 35 39 41 38 31 28 31 35 35 35 35 34 31 26 19 18 19 21 22 23 23 25 25 24 25 24 23 22 21 20 19 19
4 5 6 6 5 5 6 9 12 12 9 8 12 14 14 13 14 14 15 17 16 14 15 16 17 19 20 18 18 18 17 15 18 21 17 14 17 23 26 30 34 35 38 41 40 37 39 43 43 41 42 42 37 35 38 40 37 34 34 36 39 40 38 37 36 33 30 24 17 17 18 19 20 21 22 25 25 23 23 21 19 18 17 16 16 16
3 5 6 6 6 8 10 11 9 9 10 13 15 16 15 14 14 15 17 17 15 15 16 15 16 18 19 22 26 23 15 16 24 23 16 17 24 30 32 34 34 34 37 38 36 37 43 46 44 43 44 41 36 36 38 37 37 39 43 44 44 43 41 40 36 31 28 23 17 18 18 18 20 20 22 24 24 23 21 18 16 16 15 13 11 12
Wind_Direction
71 63 64 169 205 228 204 155 133 127 122 121 144 171 224 253 281 268 276 307 325 293 261 239 262 277 284 288 287 265 211 224 250 257 261 259 256 255 252 255 252 247 255 263 268 266 261 259 257 255 254 251 246 244 245 246 247 248 249 251 252 255 257 258 261 265 268 272 280 288 294 299 302 301 299 299 289 269 257 255 257 263 270 272 273 276
62 79 162 208 202 179 142 144 109 77 81 87 146 230 267 233 259 276 354 314 354 5 268 269 291 285 285 288 292 276 188 228 231 235 254 254 255 256 251 256 256 256 264 269 269 265 261 258 256 253 251 248 244 243 243 244 247 248 248 249 251 253 253 255 259 261 263 268 275 281 287 293 296 296 295 292 288 273 260 256 257 262 268 272 273 275
41 124 210 199 162 110 73 88 74 62 93 92 133 244 297 260 266 296 349 333 336 306 289 341 314 291 291 293 295 275 216 239 228 225 245 253 258 257 249 256 261 267 271 269 267 266 262 257 255 252 249 247 245 244 245 246 247 246 246 247 248 250 251 254 257 257 261 267 273 277 282 288 290 292 292 289 286 278 267 262 260 261 265 269 272 273
15 232 221 152 129 100 64 46 67 68 147 192 219 273 287 299 332 288 312 331 294 265 286 303 295 288 298 305 300 278 244 266 261 244 247 245 251 256 256 259 261 264 268 270 270 269 266 259 253 249 247 247 245 244 244 245 245 244 245 246 246 248 251 253 254 255 259 264 268 273 278 282 283 285 287 286 283 279 274 270 265 263 264 267 269 269
222 244 142 107 88 93 108 63 109 147 309 266 215 197 238 282 273 237 291 320 309 343 294 296 302 287 307 327 299 295 314 296 287 276 268 248 243 258 268 265 256 253 259 266 270 271 269 261 254 251 249 248 245 244 246 245 244 244 245 245 246 248 250 251 251 252 254 256 260 265 271 274 276 278 279 279 279 281 278 271 267 267 264 262 264 263
162 221 146 109 66 83 135 212 194 181 310 307 233 193 179 160 292 281 313 329 338 7 322 346 356 298 310 313 276 307 345 312 306 287 279 271 255 252 258 262 259 255 255 256 261 268 270 265 260 257 252 247 244 247 249 247 245 245 246 245 246 247 248 248 249 248 248 249 253 257 258 261 265 268 270 272 277 281 278 272 272 273 267 260 258 255
125 81 113 128 123 108 124 251 227 156 69 327 270 164 133 94 9 301 316 346 339 299 303 38 70 268 313 309 276 320 329 306 309 286 277 280 272 253 247 258 264 262 260 255 257 263 265 264 261 257 254 247 246 252 252 248 246 245 245 244 244 245 246 246 246 245 243 244 249 253 254 257 259 260 266 274 277 279 278 276 277 277 271 266 258 251
127 105 97 114 124 126 193 259 214 141 98 294 230 122 100 6 297 269 194 148 248 286 326 15 97 231 296 282 275 326 317 307 316 298 285 281 271 263 255 257 260 261 263 264 265 264 262 262 258 256 257 253 252 256 253 247 247 246 244 244 243 244 244 244 243 242 240 242 246 250 252 254 256 259 266 274 277 276 276 276 276 274 273 273 262 250
135 159 186 159 135 190 228 221 176 143 100 251 185 111 18 270 241 169 123 149 282 348 325 319 28 346 272 273 303 347 317 304 301 284 283 283 279 278 273 269 266 265 266 263 267 272 271 270 266 264 265 265 261 258 253 250 249 247 245 243 242 242 242 241 240 240 239 241 244 247 248 249 253 258 263 269 271 271 270 272 272 271 274 274 264 251
164 211 197 154 154 216 221 200 159 154 253 221 154 100 53 65 69 82 92 111 38 0 266 269 359 28 270 284 313 1 266 264 271 275 275 278 282 280 277 278 277 277 278 271 266 271 275 277 278 277 276 273 268 262 258 254 250 247 244 241 239 240 240 238 238 238 238 239 240 242 243 245 249 253 258 262 264 266 266 267 267 269 272 271 263 255
335 293 202 140 166 194 162 88 152 177 288 325 117 76 48 43 45 54 56 87 57 329 258 260 314 64 292 286 259 216 223 218 237 283 286 284 289 284 276 275 278 283 287 288 283 280 282 286 287 285 280 277 274 267 261 256 251 247 243 240 239 240 239 236 236 236 237 238 238 240 242 243 247 250 253 256 258 261 262 262 264 267 268 264 260 256
347 35 239 279 187 135 112 68 46 237 348 30 61 39 9 350 24 29 351 48 67 276 263 274 295 155 237 266 246 238 257 227 211 252 270 275 283 284 282 280 283 288 290 294 294 290 291 294 294 291 284 282 280 272 264 258 252 247 243 240 238 239 237 235 235 234 235 236 236 239 240 242 246 248 249 251 254 258 259 259 260 260 260 257 254 251
305 228 275 344 42 110 114 46 353 0 23 44 56 54 18 342 8 8 323 1 213 242 261 321 313 261 232 251 257 262 269 248 218 225 240 253 263 272 282 291 302 308 302 298 294 292 293 292 294 293 289 288 285 277 270 262 255 249 245 240 238 240 238 235 234 234 234 235 236 238 239 241 244 246 248 250 252 255 256 255 254 251 251 251 249 247
330 297 340 63 335 34 113 144 310 327 17 42 92 93 67 36 16 315 284 300 277 263 283 314 310 286 271 265 242 244 258 250 226 228 234 242 256 271 288 301 304 301 297 293 289 289 290 289 292 294 293 292 289 285 279 270 261 253 248 243 240 242 241 236 235 235 234 236 237 239 239 240 242 243 246 248 251 254 254 253 251 249 248 247 247 246
346 295 320 128 261 6 88 156 168 143 83 73 160 127 127 145 162 265 244 240 276 288 298 309 283 212 231 272 227 224 253 265 255 253 256 260 264 278 294 295 293 292 292 291 288 288 289 294 297 298 297 296 294 292 287 278 268 257 251 247 243 244 243 238 237 235 235 237 238 238 239 239 240 242 244 247 250 252 253 252 249 248 248 246 246 246
168 262 277 338 306 83 97 233 119 102 78 261 161 108 152 177 150 182 193 182 199 313 297 268 239 216 224 279 277 262 274 279 278 279 289 288 281 282 290 292 295 295 298 299 299 299 299 302 304 303 302 301 300 298 292 285 275 263 258 253 248 248 246 241 239 237 236 238 238 237 238 238 238 239 241 243 246 249 251 251 248 247 248 246 244 246
100 278 292 0 8 66 148 230 93 60 261 134 124 177 228 177 117 112 218 41 81 325 279 260 264 283 314 294 298 342 322 297 312 324 316 300 303 315 307 309 313 309 310 309 305 304 304 306 307 307 307 306 304 302 298 293 285 273 265 259 253 252 248 244 242 239 238 238 237 236 236 236 236 236 238 241 244 247 249 249 246 245 245 242 241 245
139 281 305 46 69 14 258 179 45 21 120 104 175 219 211 106 89 100 261 347 42 243 267 290 275 285 344 298 315 354 335 311 321 327 325 321 327 331 322 320 318 314 314 309 305 306 306 308 310 311 313 312 311 308 305 303 296 284 274 266 259 255 252 249 244 241 239 237 235 235 234 234 235 235 238 241 243 245 246 246 244 242 241 240 241 247
111 287 306 4 163 308 357 69 0 352 58 107 195 193 92 135 197 68 140 311 344 288 278 291 288 275 197 233 288 318 310 310 315 322 328 322 324 327 320 318 318 317 316 314 316 316 313 315 316 318 320 321 321 318 314 311 305 293 283 274 265 261 259 255 249 243 240 237 235 235 234 234 234 235 238 239 241 243 244 245 244 244 244 245 246 249
95 104 288 288 216 304 12 127 242 317 26 33 29 3 35 143 181 179 150 173 229 278 286 312 315 274 215 207 215 257 282 299 306 313 316 307 310 313 310 313 316 318 319 318 318 317 316 318 320 324 326 325 324 322 318 315 309 300 291 281 272 267 263 258 251 245 241 238 235 232 232 232 233 234 236 237 239 241 243 246 246 246 247 248 249 250
63 119 253 295 314 288 269 207 198 178 139 86 94 286 341 95 150 241 223 144 142 215 241 293 295 265 234 194 199 250 282 291 291 301 307 309 314 308 302 306 311 316 319 317 316 317 317 320 325 330 330 328 326 323 320 317 311 305 298 289 280 273 266 260 254 247 241 238 235 231 230 230 231 232 233 235 237 240 243 245 245 246 248 249 250 250
97 152 213 294 309 255 236 233 186 175 166 156 176 196 182 143 123 141 285 267 115 190 190 197 283 276 238 182 212 254 284 293 295 308 319 322 320 311 306 309 313 317 317 315 318 319 319 326 332 334 332 330 328 326 324 321 316 311 305 299 291 280 270 265 258 250 243 239 235 232 230 229 230 230 231 233 236 239 241 242 243 245 247 247 248 247
150 113 145 264 267 249 253 346 85 151 146 137 169 184 150 135 131 152 249 256 144 233 181 122 272 276 241 187 229 255 258 282 305 319 325 323 320 317 316 316 318 317 315 316 318 317 324 334 336 334 331 330 329 329 330 329 326 320 314 308 299 288 280 273 264 255 247 239 234 233 231 228 228 228 229 232 235 237 239 241 243 245 245 244 245 246
124 90 47 276 291 319 339 6 35 55 91 122 251 154 145 155 140 155 192 192 186 219 179 65 270 272 279 216 224 254 277 306 323 329 327 323 322 322 320 319 318 316 316 318 318 319 330 337 336 332 329 330 331 332 333 333 332 328 322 315 305 296 289 281 270 258 249 240 236 232 229 227 226 226 227 230 233 236 237 240 243 244 244 244 245 246
233 184 70 326 324 335 345 352 352 356 26 208 232 191 159 116 100 115 149 106 273 227 179 187 263 266 281 307 307 316 325 329 326 326 324 317 315 319 319 318 318 319 320 321 323 329 334 336 334 331 330 331 332 333 333 333 332 330 326 322 314 305 297 288 274 260 250 241 235 230 227 225 224 224 224 227 232 235 236 239 241 242 242 243 244 245
236 195 138 198 288 298 303 305 306 310 285 222 179 196 205 138 129 156 154 118 258 239 172 189 264 282 304 315 313 316 323 324 319 318 315 308 309 313 314 315 318 320 320 321 327 331 333 334 333 331 333 333 332 332 333 333 332 331 329 326 321 314 305 294 279 263 250 241 234 230 226 224 223 222 223 226 230 233 235 237 239 240 241 243 244 245
95 230 209 198 214 235 255 259 246 56 301 279 271 223 197 178 154 127 102 187 206 215 208 224 258 285 297 302 304 310 317 317 314 314 311 310 314 315 313 314 315 314 313 317 325 329 332 334 332 331 333 333 332 332 331 332 332 331 330 327 324 320 312 300 284 265 251 240 234 230 226 224 223 222 222 225 229 233 234 235 238 239 240 242 244 244
89 290 247 212 232 246 265 277 277 102 264 266 273 259 212 179 158 152 208 233 181 56 278 245 235 273 289 297 304 310 314 312 311 312 312 315 320 319 317 316 314 314 318 324 327 331 334 332 328 330 332 332 332 332 331 331 331 330 328 325 324 322 317 306 288 268 253 241 234 231 228 226 223 222 223 225 228 231 234 235 236 237 239 242 243 241
129 257 254 212 259 263 266 276 270 245 257 260 254 262 252 187 171 192 233 242 190 226 269 271 273 278 285 295 301 304 306 306 306 307 309 315 320 320 318 317 318 323 330 332 331 334 334 330 327 329 330 331 333 332 331 331 329 329 327 325 325 324 321 312 292 271 255 243 236 233 230 227 223 222 223 224 226 230 232 234 235 236 238 240 240 239
148 245 246 154 289 285 266 270 266 233 262 289 250 250 248 213 201 212 244 258 239 240 261 275 283 283 281 283 288 293 296 296 299 306 313 319 320 319 317 318 321 326 329 329 332 333 331 326 327 329 330 332 333 331 330 329 328 327 324 324 325 325 323 316 295 273 257 245 239 235 231 227 223 222 222 222 225 228 230 232 233 233 235 236 237 239
191 260 213 93 310 299 306 330 311 185 196 270 280 275 261 228 231 234 253 268 263 256 261 269 278 281 276 272 277 283 290 297 307 317 322 322 321 320 318 319 323 325 327 329 330 330 326 325 327 329 331 331 329 328 328 327 326 323 321 322 323 324 324 317 297 276 260 249 243 237 230 225 222 221 221 222 223 226 228 229 230 230 232 233 235 238
154 261 8 56 341 290 309 357 326 266 158 250 295 307 46 154 223 235 231 226 229 260 278 283 284 291 299 301 300 303 311 317 321 325 324 318 317 316 315 318 322 322 325 328 328 326 324 326 327 328 327 326 325 326 326 325 324 321 319 319 319 321 324 318 300 281 266 256 247 237 229 224 221 220 220 220 222 224 226 226 227 228 229 230 233 237
131 135 70 59 321 272 293 333 317 323 60 51 275 245 111 316 273 261 261 248 229 238 281 294 292 301 314 321 321 322 326 328 329 330 323 316 313 311 313 320 323 322 325 326 322 320 321 321 321 321 321 320 321 323 323 322 321 318 316 315 316 318 321 318 305 287 272 262 249 238 231 225 221 220 220 220 221 223 224 225 226 227 227 229 232 235
112 115 132 148 204 272 303 327 329 349 35 270 242 181 116 320 288 267 278 276 259 230 234 273 291 306 316 325 326 325 324 323 323 323 317 308 304 307 315 322 322 322 322 319 316 316 316 313 313 314 316 317 319 321 321 321 320 317 315 312 312 315 317 317 308 293 278 267 253 241 232 226 222 221 221 221 221 222 223 224 225 226 228 228 229 232
122 110 125 159 164 267 315 355 1 326 239 247 272 248 231 252 250 250 260 264 270 277 274 283 304 314 320 324 323 318 315 313 314 313 303 296 297 310 318 319 319 319 315 314 313 312 311 311 309 310 313 317 319 321 322 322 321 318 314 310 310 311 313 314 308 297 284 271 259 245 233 227 224 222 222 221 221 221 222 223 224 225 226 226 227 231
136 134 147 149 171 274 349 31 346 279 255 270 316 293 262 272 286 297 290 269 274 290 298 311 320 322 323 322 317 315 312 309 309 303 288 289 312 323 319 316 316 314 310 309 308 308 309 308 304 306 311 314 318 322 322 321 319 314 310 307 305 306 310 311 306 299 289 275 263 248 235 228 224 222 221 220 219 220 222 223 224 225 225 227 230 233
128 132 154 293 234 147 55 293 282 307 327 3 347 328 313 312 305 299 298 294 292 281 298 327 330 328 326 323 319 319 316 310 309 310 314 326 326 321 316 313 312 311 310 309 309 310 311 309 307 307 308 311 317 320 320 319 316 310 304 301 300 302 308 309 303 300 293 280 268 254 239 230 225 223 221 219 218 220 222 224 225 226 226 228 229 231
79 101 163 201 297 88 69 307 325 347 302 225 285 312 275 247 247 229 254 285 294 341 348 342 336 330 327 325 324 325 321 314 314 324 339 334 326 322 320 317 317 317 315 314 313 313 312 312 310 307 306 311 318 321 322 321 315 308 300 295 293 298 304 303 301 301 297 286 273 259 244 232 226 224 221 218 219 221 223 223 225 227 228 228 228 229
39 27 103 102 11 58 90 317 275 266 249 238 297 318 304 235 209 182 251 266 297 352 352 343 333 328 327 325 325 327 325 318 319 326 332 330 327 326 325 322 322 319 315 313 312 310 310 311 309 306 309 317 320 323 325 321 314 307 299 291 290 294 299 299 301 305 301 292 280 263 245 233 227 224 222 221 221 222 223 223 224 227 228 228 228 231
23 8 45 69 326 147 136 200 235 239 257 277 313 328 332 170 157 17 324 304 331 346 345 337 329 327 327 324 325 328 325 321 319 321 325 326 324 324 323 321 318 315 312 312 311 310 311 312 311 313 318 320 321 323 324 319 313 307 299 293 292 293 296 300 306 309 306 297 284 263 244 234 227 223 222 222 222 222 222 222 223 224 224 223 226 230
20 8 46 124 188 192 178 215 278 276 257 286 329 337 337 156 127 347 320 319 337 336 332 330 328 325 327 326 326 326 321 316 313 315 321 323 322 322 321 318 317 316 316 316 316 318 320 320 321 323 322 320 321 322 320 316 313 306 300 297 294 292 298 305 310 311 308 299 283 263 246 236 228 222 221 222 221 220 220 220 220 221 220 219 222 229
47 9 4 132 162 167 166 188 299 284 241 333 348 345 352 356 338 321 318 325 330 325 321 324 324 324 327 326 322 318 316 314 314 318 321 322 321 320 320 320 320 321 322 323 326 331 331 329 327 323 319 321 322 321 319 317 313 308 305 298 290 296 306 313 314 312 308 298 281 263 249 238 228 221 219 219 218 216 216 217 219 219 218 218 222 229
139 173 307 247 197 68 15 352 330 287 285 4 1 355 9 358 324 312 321 322 320 319 318 320 323 325 325 321 319 318 315 315 319 321 321 321 321 321 323 324 325 327 330 332 334 335 333 328 324 322 321 323 324 323 322 319 315 312 308 295 294 307 316 317 317 314 308 296 279 262 249 238 226 218 215 215 215 213 213 214 214 215 217 219 221 226
120 97 347 271 197 77 355 275 285 298 314 8 11 341 321 328 322 323 323 317 317 322 321 320 322 323 323 322 319 317 317 319 322 324 324 324 325 327 327 328 331 333 335 334 333 333 332 328 324 323 323 325 326 326 325 322 317 313 308 305 313 321 322 321 321 317 307 295 279 261 248 235 224 216 213 213 211 210 210 210 210 212 216 217 218 222
86 80 248 240 206 222 267 257 274 297 317 1 355 323 316 324 325 322 316 310 314 321 321 321 320 320 323 322 317 316 320 323 326 328 328 327 329 331 331 331 334 336 334 333 334 334 333 329 326 325 324 326 328 329 327 324 320 317 319 324 327 327 327 328 326 318 307 295 280 262 246 232 220 214 213 211 209 207 207 206 207 209 211 214 216 217
284 23 175 201 292 290 267 264 286 307 331 337 329 322 326 326 322 321 318 314 316 318 318 316 314 315 319 321 320 320 324 329 330 327 325 328 332 333 332 332 334 335 334 334 335 335 333 330 329 328 327 328 330 330 327 325 329 335 335 331 330 332 336 334 329 320 310 297 281 263 243 227 216 212 211 210 209 210 209 208 208 207 207 211 213 213
297 309 288 342 326 308 290 308 329 333 326 320 318 322 322 319 317 319 317 314 315 315 312 312 314 316 322 327 326 323 327 332 328 321 326 335 334 332 333 333 332 333 333 334 335 335 334 331 330 331 331 329 328 327 326 331 341 342 334 329 333 341 342 338 333 327 315 300 281 260 239 224 214 209 207 206 206 208 210 211 211 209 208 210 210 209
312 350 0 338 318 289 278 298 319 320 308 307 324 329 323 321 318 313 309 308 309 309 310 316 320 325 330 330 327 328 331 328 322 325 336 339 331 329 331 330 329 330 333 336 337 334 332 331 332 331 329 326 324 326 331 339 340 334 330 335 345 347 342 339 337 330 318 303 281 255 237 224 213 206 202 201 202 204 207 209 211 212 213 215 214 209
300 348 344 316 296 276 277 306 325 321 301 306 335 324 316 315 315 313 313 311 310 313 320 325 331 335 331 328 333 337 328 321 328 341 341 334 328 329 330 330 333 336 338 337 333 331 333 335 332 328 325 322 323 329 337 338 335 335 342 350 350 346 341 338 335 329 319 305 277 247 236 225 213 205 201 200 201 206 212 215 216 218 221 224 224 221
331 347 335 316 308 312 317 328 331 322 308 315 323 317 312 312 313 316 317 316 319 331 337 337 337 334 331 336 343 335 322 327 345 344 334 329 330 330 333 337 337 337 335 332 330 334 339 336 331 328 325 324 327 335 341 341 343 348 352 349 344 341 338 334 331 327 319 304 271 241 234 222 207 203 201 199 200 205 214 222 226 228 234 236 232 229
347 334 327 320 310 307 311 316 317 309 304 310 315 314 313 316 319 319 320 324 334 344 347 344 337 333 335 339 339 334 333 344 343 335 330 334 335 335 338 339 337 334 332 330 334 340 339 335 333 330 327 327 336 345 348 348 348 346 343 340 339 337 334 332 329 323 317 305 277 249 236 217 204 201 200 199 202 204 209 217 222 225 232 238 235 228